Regional Weather Roundup
Issued by NWS Mt. Holly, NJ

Home | Current Version | Previous Version | Text Only | Print | Product List | Glossary On
Versions: 1 2 3 4 5 6 7 8 9 10 11 12 13 14 15 16 17 18 19 20 21 22 23 24 25 26 27
000
ASUS41 KPHI 271412
RWRPHI

REGIONAL WEATHER ROUNDUP
NATIONAL WEATHER SERVICE MOUNT HOLLY NJ
1000 AM EDT SAT MAY 27 2017

NOTE:  "FAIR" INDICATES FEW OR NO CLOUDS BELOW 12,000 FEET WITH NO
SIGNIFICANT WEATHER AND/OR OBSTRUCTIONS TO VISIBILITY.

 * = STATION DOES NOT REPORT PRECIPITATION (E.G. RAIN, SNOW, ETC.)
        OR FOG.

NJZ015>026-271500-
SOUTHERN NEW JERSEY

CITY           SKY/WX    TMP DP  RH WIND       PRES   REMARKS
POMONA         NOT AVBL
WILDWOOD*      PTSUNNY   67  55  65 VRB5      29.93S
MILLVILLE      SUNNY     70  55  59 NW8       29.91F
WRIGHTSTOWN    MOSUNNY   69  56  61 W5        29.88S
MOUNT HOLLY    SUNNY     68  52  56 W5        29.90S
TRENTON        MOSUNNY   68  55  63 NW5       29.89S

$$
NJZ001>014-271500-
NORTHERN NEW JERSEY

CITY           SKY/WX    TMP DP  RH WIND       PRES   REMARKS
SUSSEX         CLOUDY    67  55  65 VRB5      29.89S
ANDOVER*         N/A     67  57  70 CALM      29.89S
MORRISTOWN     MOSUNNY   70  55  60 N8        29.88S
NEWARK         PTSUNNY   69  54  58 NW6       29.87S
TETERBORO      MOSUNNY   69  56  62 VRB3      29.86S
CALDWELL       MOSUNNY   70  53  54 W3        29.88S
SOMERVILLE     CLOUDY    69  56  62 VRB3      29.87S
TOMS RIVER*    MOSUNNY   70  55  59 NW8       29.90S

$$
PAZ043-044-047-054-055-060>062-066>071-271500-
EASTERN PENNSYLVANIA

CITY           SKY/WX    TMP DP  RH WIND       PRES   REMARKS
PHILADELPHIA   CLOUDY    69  53  56 NW6       29.90F
NORTH PHILA    SUNNY     69  54  58 N6        29.91F
BLUE BELL*     MOSUNNY   63  55  77 CALM      29.92S
DOYLESTOWN     SUNNY     66  54  65 W6        29.89S
QUAKERTOWN*    MOSUNNY   66  55  68 CALM      29.91F
PERKASIE*      FAIR      66  55  68 W5        29.91F
POTTSTOWN      CLOUDY    63  54  72 W3        29.92F
LANCASTER      CLOUDY    66  56  70 W3        29.91F
COATESVILLE    MOSUNNY   64  55  72 NW3       29.93F
READING        CLOUDY    67  56  67 NW6       29.90F
ALLENTOWN      MOSUNNY   68  55  63 W8        29.90S
MOUNT POCONO   CLOUDY    60  54  80 NW8       29.92R
HAZLETON       CLOUDY    63  55  77 NW3       29.95S
LEHIGHTON      PTSUNNY   66  52  59 CALM      29.91S
WILKES BARRE   CLOUDY    62  54  74 W7        29.91S

$$
DEZALL-MDZ008-012-015-019-020-271500-
DELAWARE AND EASTERN MARYLAND

CITY           SKY/WX    TMP DP  RH WIND       PRES   REMARKS
WILMINGTON     CLOUDY    69  55  60 VRB3      29.92S
DOVER          MOSUNNY   70  61  71 NW7       29.90F
GEORGETOWN     PTSUNNY   72  54  53 CALM      29.92F
EASTON         MOSUNNY   72  54  53 CALM      29.95F
ABERDEEN       PTSUNNY   67  54  64 N3        29.93S
PATUXENT       MOSUNNY   71  56  58 SE5       29.92S
OCEAN CITY     PTSUNNY   69  57  65 SE3       29.93F
WALLOPS ISLAND SUNNY     72  54  53 E6        29.93S
CAMBRIDGE      PTSUNNY   72  57  60 CALM      29.92F
SALISBURY      SUNNY     73  53  49 CALM      29.92F

$$
PAZ001-021-NYZ056-072-MDZ011-DCZ001-271500-
OTHER NEARBY LOCATIONS

CITY           SKY/WX    TMP DP  RH WIND       PRES   REMARKS
HARRISBURG     CLOUDY    65  55  70 W3        29.91F
STATE COLLEGE  CLOUDY    59  55  88 CALM      29.93F
WILLIAMSPORT   CLOUDY    64  53  67 CALM      29.90S
BINGHAMTON     CLOUDY    56  53  90 NW7       29.91R
NEW YORK CITY  MOSUNNY   66  54  65 CALM      29.91R
BALTIMORE      CLOUDY    68  56  65 CALM      29.92S
WASHINGTON DC  PTSUNNY   69  56  62 CALM      29.93F

$$




USA.gov is the U.S. government's official web portal to all federal, state and local government web resources and services.